Time,TemperatureF,DewpointF,PressureIn,WindDirection,WindDirectionDegrees,WindSpeedMPH,WindSpeedGustMPH,Humidity,HourlyPrecipIn,Conditions,Clouds,dailyrainin,SoftwareType,DateUTC
2013-02-26 00:00:00,34.7,29.8,30.21,South,183,0.0,0.0,82,0.00,,,0.02,Wunderground PWS Mod,2013-02-26 05:00:00,
2013-02-26 00:02:00,34.7,29.8,30.21,South,183,0.0,0.0,82,0.00,,,0.02,Wunderground PWS Mod,2013-02-26 05:02:00,
2013-02-26 00:03:00,34.7,29.8,30.21,South,183,0.0,0.0,82,0.00,,,0.02,Wunderground PWS Mod,2013-02-26 05:03:00,
2013-02-26 00:07:00,34.6,29.7,30.21,South,184,0.0,0.0,82,0.00,,,0.00,Wunderground PWS Mod,2013-02-26 05:07:00,
2013-02-26 00:12:00,34.5,29.6,30.21,South,183,0.0,0.0,82,0.00,,,0.00,Wunderground PWS Mod,2013-02-26 05:12:00,
2013-02-26 00:14:00,34.1,29.5,30.22,N/A,-737280,0.0,0.0,83,0.00,,,0.00,Wunderground PWS Mod,2013-02-26 05:14:00,
2013-02-26 00:18:00,34.3,29.4,30.21,South,183,0.0,0.0,82,0.00,,,0.00,Wunderground PWS Mod,2013-02-26 05:18:00,
2013-02-26 00:24:00,34.0,29.4,30.21,South,183,0.0,0.0,83,0.00,,,0.00,Wunderground PWS Mod,2013-02-26 05:24:00,
2013-02-26 00:30:00,34.0,29.4,30.21,South,184,0.0,0.0,83,0.00,,,0.00,Wunderground PWS Mod,2013-02-26 05:30:00,
2013-02-26 00:35:00,34.1,29.5,30.21,South,183,0.0,0.0,83,0.00,,,0.00,Wunderground PWS Mod,2013-02-26 05:35:00,
2013-02-26 00:40:00,34.1,29.5,30.21,South,184,0.0,0.0,83,0.00,,,0.00,Wunderground PWS Mod,2013-02-26 05:40:00,
2013-02-26 00:46:00,34.2,29.3,30.21,South,183,0.0,0.0,82,0.00,,,0.00,Wunderground PWS Mod,2013-02-26 05:46:00,
2013-02-26 00:51:00,34.2,29.3,30.21,South,183,0.0,0.0,82,0.00,,,0.00,Wunderground PWS Mod,2013-02-26 05:51:00,
2013-02-26 00:56:00,34.3,29.4,30.21,South,183,0.0,0.0,82,0.00,,,0.00,Wunderground PWS Mod,2013-02-26 05:56:00,
2013-02-26 01:01:00,34.3,29.4,30.21,South,183,0.0,0.0,82,0.00,,,0.00,Wunderground PWS Mod,2013-02-26 06:01:00,
2013-02-26 01:06:00,34.2,29.3,30.21,South,184,0.0,0.0,82,0.00,,,0.00,Wunderground PWS Mod,2013-02-26 06:06:00,
2013-02-26 01:12:00,34.2,29.3,30.21,South,183,0.0,0.0,82,0.00,,,0.00,Wunderground PWS Mod,2013-02-26 06:12:00,
2013-02-26 01:17:00,34.1,29.2,30.20,South,183,0.0,0.0,82,0.00,,,0.00,Wunderground PWS Mod,2013-02-26 06:17:00,
2013-02-26 01:22:00,34.2,29.6,30.20,South,183,0.0,0.0,83,0.00,,,0.00,Wunderground PWS Mod,2013-02-26 06:22:00,
2013-02-26 01:27:00,34.4,29.5,30.19,South,183,0.0,0.0,82,0.00,,,0.00,Wunderground PWS Mod,2013-02-26 06:27:00,
2013-02-26 01:33:00,34.2,29.3,30.19,South,183,0.0,0.0,82,0.00,,,0.00,Wunderground PWS Mod,2013-02-26 06:33:00,
2013-02-26 01:38:00,34.1,29.2,30.20,South,183,0.0,0.0,82,0.00,,,0.00,Wunderground PWS Mod,2013-02-26 06:38:00,
2013-02-26 01:43:00,34.3,29.4,30.19,South,183,0.0,0.0,82,0.00,,,0.00,Wunderground PWS Mod,2013-02-26 06:43:00,
2013-02-26 01:48:00,34.3,29.4,30.19,South,183,0.0,0.0,82,0.00,,,0.00,Wunderground PWS Mod,2013-02-26 06:48:00,
2013-02-26 01:54:00,34.5,29.6,30.19,South,184,0.0,0.0,82,0.00,,,0.00,Wunderground PWS Mod,2013-02-26 06:54:00,
2013-02-26 02:00:00,34.6,29.7,30.20,South,184,0.0,0.0,82,0.00,,,0.00,Wunderground PWS Mod,2013-02-26 07:00:00,
2013-02-26 02:06:00,34.7,29.5,30.20,South,184,0.0,0.0,81,0.00,,,0.00,Wunderground PWS Mod,2013-02-26 07:06:00,
2013-02-26 02:11:00,34.7,29.5,30.21,South,184,0.0,0.0,81,0.00,,,0.00,Wunderground PWS Mod,2013-02-26 07:11:00,
2013-02-26 02:17:00,34.5,29.6,30.22,South,184,0.0,0.0,82,0.00,,,0.00,Wunderground PWS Mod,2013-02-26 07:17:00,
2013-02-26 02:22:00,34.9,29.7,30.22,South,183,0.0,0.0,81,0.00,,,0.00,Wunderground PWS Mod,2013-02-26 07:22:00,
2013-02-26 02:27:00,35.0,29.8,30.22,South,183,0.0,0.0,81,0.00,,,0.00,Wunderground PWS Mod,2013-02-26 07:27:00,
2013-02-26 02:33:00,35.0,29.8,30.22,South,183,0.0,0.0,81,0.00,,,0.00,Wunderground PWS Mod,2013-02-26 07:33:00,
2013-02-26 02:38:00,34.9,29.7,30.22,South,184,0.0,0.0,81,0.00,,,0.00,Wunderground PWS Mod,2013-02-26 07:38:00,
2013-02-26 02:43:00,35.0,29.8,30.23,South,183,0.0,0.0,81,0.00,,,0.00,Wunderground PWS Mod,2013-02-26 07:43:00,
2013-02-26 02:48:00,35.2,30.0,30.23,South,184,0.0,0.0,81,0.00,,,0.00,Wunderground PWS Mod,2013-02-26 07:48:00,
2013-02-26 02:54:00,35.2,29.6,30.24,South,184,0.0,0.0,80,0.00,,,0.00,Wunderground PWS Mod,2013-02-26 07:54:00,
2013-02-26 03:00:00,35.2,30.0,30.24,South,183,0.0,0.0,81,0.00,,,0.00,Wunderground PWS Mod,2013-02-26 08:00:00,
2013-02-26 03:05:00,35.1,29.9,30.24,South,183,0.0,0.0,81,0.00,,,0.00,Wunderground PWS Mod,2013-02-26 08:05:00,
2013-02-26 03:10:00,35.2,30.0,30.24,South,183,0.0,0.0,81,0.00,,,0.00,Wunderground PWS Mod,2013-02-26 08:10:00,
2013-02-26 03:15:00,35.1,29.9,30.24,South,183,0.0,0.0,81,0.00,,,0.00,Wunderground PWS Mod,2013-02-26 08:15:00,
2013-02-26 03:20:00,35.2,29.6,30.23,South,184,0.0,0.0,80,0.00,,,0.00,Wunderground PWS Mod,2013-02-26 08:20:00,
2013-02-26 03:26:00,35.3,29.7,30.23,South,183,0.0,0.0,80,0.00,,,0.00,Wunderground PWS Mod,2013-02-26 08:26:00,
2013-02-26 03:32:00,35.3,29.7,30.24,South,183,0.0,0.0,80,0.00,,,0.00,Wunderground PWS Mod,2013-02-26 08:32:00,
2013-02-26 03:37:00,35.5,29.9,30.25,South,184,0.0,0.0,80,0.00,,,0.00,Wunderground PWS Mod,2013-02-26 08:37:00,
2013-02-26 03:42:00,35.5,29.6,30.24,South,184,0.0,0.0,79,0.00,,,0.00,Wunderground PWS Mod,2013-02-26 08:42:00,
2013-02-26 03:47:00,35.5,29.9,30.25,South,183,0.0,0.0,80,0.00,,,0.00,Wunderground PWS Mod,2013-02-26 08:47:00,
2013-02-26 03:52:00,35.5,29.9,30.25,South,184,0.0,0.0,80,0.00,,,0.00,Wunderground PWS Mod,2013-02-26 08:52:00,
2013-02-26 03:58:00,35.5,29.6,30.24,South,183,0.0,0.0,79,0.00,,,0.00,Wunderground PWS Mod,2013-02-26 08:58:00,
2013-02-26 04:03:00,35.4,29.5,30.24,South,184,0.0,0.0,79,0.00,,,0.00,Wunderground PWS Mod,2013-02-26 09:03:00,
2013-02-26 04:08:00,35.5,29.6,30.24,South,184,0.0,0.0,79,0.00,,,0.00,Wunderground PWS Mod,2013-02-26 09:08:00,
2013-02-26 04:10:00,35.4,29.5,30.24,N/A,-737280,0.0,0.0,79,0.00,,,0.00,Wunderground PWS Mod,2013-02-26 09:10:00,
2013-02-26 04:14:00,35.5,29.6,30.23,South,184,0.0,0.0,79,0.00,,,0.00,Wunderground PWS Mod,2013-02-26 09:14:00,
2013-02-26 04:20:00,35.6,29.7,30.23,South,184,0.0,0.0,79,0.00,,,0.00,Wunderground PWS Mod,2013-02-26 09:20:00,
2013-02-26 04:25:00,35.3,30.1,30.23,NNE,21,0.0,0.0,81,0.00,,,0.00,Wunderground PWS Mod,2013-02-26 09:25:00,
2013-02-26 04:31:00,34.3,29.7,30.24,NNW,331,0.0,0.0,83,0.00,,,0.00,Wunderground PWS Mod,2013-02-26 09:31:00,
2013-02-26 04:36:00,33.8,29.5,30.23,NNE,19,0.0,0.0,84,0.00,,,0.00,Wunderground PWS Mod,2013-02-26 09:36:00,
2013-02-26 04:41:00,33.6,29.3,30.24,NE,40,0.0,0.0,84,0.00,,,0.00,Wunderground PWS Mod,2013-02-26 09:41:00,
2013-02-26 04:46:00,33.6,29.9,30.24,NE,43,0.0,0.0,86,0.00,,,0.00,Wunderground PWS Mod,2013-02-26 09:46:00,
2013-02-26 04:52:00,33.7,30.0,30.24,NE,38,0.0,0.0,86,0.00,,,0.00,Wunderground PWS Mod,2013-02-26 09:52:00,
2013-02-26 04:57:00,33.7,30.0,30.23,NE,51,0.0,0.0,86,0.00,,,0.00,Wunderground PWS Mod,2013-02-26 09:57:00,
2013-02-26 05:02:00,33.6,29.9,30.23,NE,50,0.0,0.0,86,0.00,,,0.00,Wunderground PWS Mod,2013-02-26 10:02:00,
2013-02-26 05:07:00,33.7,30.0,30.23,NE,53,0.0,0.0,86,0.00,,,0.00,Wunderground PWS Mod,2013-02-26 10:07:00,
2013-02-26 05:13:00,33.6,29.9,30.23,NE,52,0.0,0.0,86,0.00,,,0.00,Wunderground PWS Mod,2013-02-26 10:13:00,
2013-02-26 05:18:00,33.7,30.0,30.24,NNE,28,0.0,0.0,86,0.00,,,0.00,Wunderground PWS Mod,2013-02-26 10:18:00,
2013-02-26 05:23:00,33.7,30.0,30.25,NNE,24,0.0,0.0,86,0.00,,,0.00,Wunderground PWS Mod,2013-02-26 10:23:00,
2013-02-26 05:29:00,33.6,29.9,30.25,NNE,15,0.0,0.0,86,0.00,,,0.00,Wunderground PWS Mod,2013-02-26 10:29:00,
2013-02-26 05:34:00,33.5,29.8,30.25,NNE,15,0.0,0.0,86,0.00,,,0.00,Wunderground PWS Mod,2013-02-26 10:34:00,
2013-02-26 05:40:00,33.5,30.0,30.25,NNE,15,0.0,0.0,87,0.00,,,0.00,Wunderground PWS Mod,2013-02-26 10:40:00,
2013-02-26 05:46:00,33.5,30.0,30.25,NNE,15,0.0,0.0,87,0.00,,,0.00,Wunderground PWS Mod,2013-02-26 10:46:00,
2013-02-26 05:51:00,33.5,30.0,30.25,NNE,15,0.0,0.0,87,0.00,,,0.00,Wunderground PWS Mod,2013-02-26 10:51:00,
2013-02-26 05:57:00,33.6,29.9,30.25,NNE,22,0.0,0.0,86,0.00,,,0.00,Wunderground PWS Mod,2013-02-26 10:57:00,
2013-02-26 06:03:00,33.9,29.9,30.25,NNE,30,0.0,0.0,85,0.00,,,0.00,Wunderground PWS Mod,2013-02-26 11:03:00,
2013-02-26 06:08:00,34.1,30.1,30.25,NNE,26,0.0,0.0,85,0.00,,,0.00,Wunderground PWS Mod,2013-02-26 11:08:00,
2013-02-26 06:13:00,34.3,30.0,30.25,NE,52,0.0,0.0,84,0.00,,,0.00,Wunderground PWS Mod,2013-02-26 11:13:00,
2013-02-26 06:18:00,34.4,30.1,30.25,NE,35,0.0,0.0,84,0.00,,,0.00,Wunderground PWS Mod,2013-02-26 11:18:00,
2013-02-26 06:23:00,34.5,30.2,30.25,NNW,348,0.0,0.0,84,0.00,,,0.00,Wunderground PWS Mod,2013-02-26 11:23:00,
2013-02-26 06:29:00,34.6,30.0,30.25,NNE,16,0.0,0.0,83,0.00,,,0.00,Wunderground PWS Mod,2013-02-26 11:29:00,
2013-02-26 06:34:00,34.8,30.2,30.26,NE,51,0.0,0.0,83,0.00,,,0.00,Wunderground PWS Mod,2013-02-26 11:34:00,
2013-02-26 06:40:00,34.9,30.0,30.26,NE,39,0.0,0.0,82,0.00,,,0.00,Wunderground PWS Mod,2013-02-26 11:40:00,
2013-02-26 06:46:00,35.0,30.1,30.25,NE,49,0.0,0.0,82,0.00,,,0.00,Wunderground PWS Mod,2013-02-26 11:46:00,
2013-02-26 06:51:00,35.0,30.1,30.26,East,83,0.0,0.0,82,0.00,,,0.00,Wunderground PWS Mod,2013-02-26 11:51:00,
2013-02-26 06:56:00,34.8,29.9,30.26,East,83,0.0,0.0,82,0.00,,,0.00,Wunderground PWS Mod,2013-02-26 11:56:00,
2013-02-26 07:02:00,34.7,29.8,30.26,East,84,0.0,0.0,82,0.00,,,0.00,Wunderground PWS Mod,2013-02-26 12:02:00,
2013-02-26 07:07:00,34.6,30.0,30.26,ENE,75,0.0,0.0,83,0.00,,,0.00,Wunderground PWS Mod,2013-02-26 12:07:00,
2013-02-26 07:12:00,34.4,29.8,30.26,ENE,59,0.0,0.0,83,0.00,,,0.00,Wunderground PWS Mod,2013-02-26 12:12:00,
2013-02-26 07:17:00,34.3,30.0,30.25,ENE,65,0.0,0.0,84,0.00,,,0.00,Wunderground PWS Mod,2013-02-26 12:17:00,
2013-02-26 07:23:00,34.2,30.2,30.26,ENE,66,0.0,0.0,85,0.00,,,0.00,Wunderground PWS Mod,2013-02-26 12:23:00,
2013-02-26 07:28:00,34.3,30.3,30.25,ENE,71,0.0,0.0,85,0.00,,,0.00,Wunderground PWS Mod,2013-02-26 12:28:00,
2013-02-26 07:33:00,34.3,30.3,30.25,East,80,0.0,0.0,85,0.00,,,0.00,Wunderground PWS Mod,2013-02-26 12:33:00,
2013-02-26 07:38:00,34.4,30.4,30.26,ENE,75,0.0,0.0,85,0.00,,,0.00,Wunderground PWS Mod,2013-02-26 12:38:00,
2013-02-26 07:44:00,34.5,30.5,30.26,ENE,69,0.0,0.0,85,0.00,,,0.00,Wunderground PWS Mod,2013-02-26 12:44:00,
2013-02-26 07:50:00,34.7,30.7,30.26,NE,51,0.0,0.0,85,0.00,,,0.00,Wunderground PWS Mod,2013-02-26 12:50:00,
2013-02-26 07:55:00,34.8,30.8,30.26,NE,44,0.0,1.0,85,0.00,,,0.00,Wunderground PWS Mod,2013-02-26 12:55:00,
2013-02-26 08:00:00,34.9,30.8,30.27,ENE,67,0.0,0.0,85,0.00,,,0.00,Wunderground PWS Mod,2013-02-26 13:00:00,
2013-02-26 08:05:00,35.1,30.8,30.27,ENE,75,0.0,2.0,84,0.00,,,0.00,Wunderground PWS Mod,2013-02-26 13:05:00,
2013-02-26 08:11:00,35.4,31.0,30.27,ENE,59,0.0,2.0,84,0.00,,,0.00,Wunderground PWS Mod,2013-02-26 13:11:00,
2013-02-26 08:14:00,35.0,30.7,30.27,ENE,68,0.0,2.0,84,0.00,,,0.00,Wunderground PWS Mod,2013-02-26 13:14:00,
2013-02-26 08:16:00,35.6,30.9,30.27,NE,42,0.0,2.0,83,0.00,,,0.00,Wunderground PWS Mod,2013-02-26 13:16:00,
2013-02-26 08:21:00,35.8,31.1,30.27,NE,49,0.0,2.0,83,0.00,,,0.00,Wunderground PWS Mod,2013-02-26 13:21:00,
2013-02-26 08:27:00,36.0,31.0,30.27,ENE,77,0.0,2.0,82,0.00,,,0.00,Wunderground PWS Mod,2013-02-26 13:27:00,
2013-02-26 08:32:00,36.3,31.3,30.28,NE,55,0.0,2.0,82,0.00,,,0.00,Wunderground PWS Mod,2013-02-26 13:32:00,
2013-02-26 08:37:00,36.4,31.1,30.28,NE,34,0.0,2.0,81,0.00,,,0.00,Wunderground PWS Mod,2013-02-26 13:37:00,
2013-02-26 08:43:00,36.6,31.3,30.28,East,88,0.0,2.0,81,0.00,,,0.00,Wunderground PWS Mod,2013-02-26 13:43:00,
2013-02-26 08:48:00,36.7,31.4,30.28,NE,43,0.0,2.0,81,0.00,,,0.00,Wunderground PWS Mod,2013-02-26 13:48:00,
2013-02-26 08:53:00,36.8,31.5,30.27,East,100,0.0,2.0,81,0.00,,,0.00,Wunderground PWS Mod,2013-02-26 13:53:00,
2013-02-26 08:58:00,37.0,31.7,30.27,NE,47,0.0,2.0,81,0.00,,,0.00,Wunderground PWS Mod,2013-02-26 13:58:00,
2013-02-26 09:03:00,37.3,31.7,30.27,East,79,0.0,2.0,80,0.00,,,0.00,Wunderground PWS Mod,2013-02-26 14:03:00,
2013-02-26 09:08:00,37.5,31.9,30.27,NE,54,0.0,2.0,80,0.00,,,0.00,Wunderground PWS Mod,2013-02-26 14:08:00,
2013-02-26 09:14:00,37.7,31.8,30.27,East,88,0.0,2.0,79,0.00,,,0.00,Wunderground PWS Mod,2013-02-26 14:14:00,
2013-02-26 09:20:00,37.9,31.7,30.27,ENE,76,0.0,2.0,78,0.00,,,0.00,Wunderground PWS Mod,2013-02-26 14:20:00,
2013-02-26 09:25:00,38.0,31.7,30.27,North,11,0.0,2.0,78,0.00,,,0.00,Wunderground PWS Mod,2013-02-26 14:25:00,
2013-02-26 09:30:00,38.3,31.7,30.27,East,91,0.0,2.0,77,0.00,,,0.00,Wunderground PWS Mod,2013-02-26 14:30:00,
2013-02-26 09:35:00,38.5,32.2,30.28,ESE,106,0.0,2.0,78,0.00,,,0.00,Wunderground PWS Mod,2013-02-26 14:35:00,
2013-02-26 09:41:00,38.7,31.8,30.28,SE,126,0.0,2.0,76,0.00,,,0.00,Wunderground PWS Mod,2013-02-26 14:41:00,
2013-02-26 09:47:00,38.8,31.6,30.28,NE,44,0.0,2.0,75,0.00,,,0.00,Wunderground PWS Mod,2013-02-26 14:47:00,
2013-02-26 09:53:00,39.0,31.7,30.29,ESE,115,0.0,2.0,75,0.00,,,0.00,Wunderground PWS Mod,2013-02-26 14:53:00,
2013-02-26 09:58:00,39.1,31.2,30.28,ESE,113,0.0,2.0,73,0.00,,,0.00,Wunderground PWS Mod,2013-02-26 14:58:00,
2013-02-26 10:03:00,39.2,31.3,30.29,East,97,0.0,2.0,73,0.00,,,0.00,Wunderground PWS Mod,2013-02-26 15:03:00,
2013-02-26 10:08:00,39.5,31.6,30.29,East,92,0.0,2.0,73,0.00,,,0.00,Wunderground PWS Mod,2013-02-26 15:08:00,
2013-02-26 10:14:00,39.6,31.3,30.29,East,98,0.0,2.0,72,0.00,,,0.00,Wunderground PWS Mod,2013-02-26 15:14:00,
2013-02-26 10:20:00,39.5,31.2,30.29,NE,54,0.0,2.0,72,0.00,,,0.00,Wunderground PWS Mod,2013-02-26 15:20:00,
2013-02-26 10:25:00,39.6,31.3,30.28,ENE,59,0.0,2.0,72,0.00,,,0.00,Wunderground PWS Mod,2013-02-26 15:25:00,
2013-02-26 10:31:00,39.7,31.1,30.28,ENE,67,0.0,2.0,71,0.00,,,0.00,Wunderground PWS Mod,2013-02-26 15:31:00,
2013-02-26 10:37:00,40.0,31.4,30.27,NNE,31,0.0,3.0,71,0.00,,,0.00,Wunderground PWS Mod,2013-02-26 15:37:00,
2013-02-26 10:42:00,40.0,30.6,30.27,NNE,26,1.0,4.0,69,0.00,,,0.00,Wunderground PWS Mod,2013-02-26 15:42:00,
2013-02-26 10:47:00,39.8,30.1,30.27,NE,51,2.0,2.0,68,0.00,,,0.00,Wunderground PWS Mod,2013-02-26 15:47:00,
2013-02-26 10:53:00,40.0,31.0,30.27,ESE,115,1.0,2.0,70,0.00,,,0.00,Wunderground PWS Mod,2013-02-26 15:53:00,
2013-02-26 10:59:00,40.3,31.6,30.28,SE,145,1.0,2.0,71,0.00,,,0.00,Wunderground PWS Mod,2013-02-26 15:59:00,
2013-02-26 11:04:00,40.3,31.3,30.28,SSE,149,1.0,3.0,70,0.00,,,0.00,Wunderground PWS Mod,2013-02-26 16:04:00,
2013-02-26 11:10:00,40.3,30.9,30.29,ESE,105,1.0,2.0,69,0.00,,,0.00,Wunderground PWS Mod,2013-02-26 16:10:00,
2013-02-26 11:16:00,40.2,30.8,30.29,ESE,104,1.0,3.0,69,0.00,,,0.00,Wunderground PWS Mod,2013-02-26 16:16:00,
2013-02-26 11:21:00,40.1,30.7,30.29,SE,133,2.0,2.0,69,0.00,,,0.00,Wunderground PWS Mod,2013-02-26 16:21:00,
2013-02-26 11:26:00,40.4,31.7,30.29,SSE,156,1.0,3.0,71,0.00,,,0.00,Wunderground PWS Mod,2013-02-26 16:26:00,
2013-02-26 11:31:00,40.3,33.0,30.29,East,90,1.0,2.0,75,0.00,,,0.00,Wunderground PWS Mod,2013-02-26 16:31:00,
2013-02-26 11:36:00,40.3,33.3,30.28,SE,144,1.0,6.0,76,0.00,,,0.00,Wunderground PWS Mod,2013-02-26 16:36:00,
2013-02-26 11:42:00,39.8,33.2,30.28,SSW,210,2.0,2.0,77,0.00,,,0.00,Wunderground PWS Mod,2013-02-26 16:42:00,
2013-02-26 11:47:00,39.7,33.4,30.28,ENE,76,2.0,2.0,78,0.00,,,0.00,Wunderground PWS Mod,2013-02-26 16:47:00,
2013-02-26 11:52:00,39.5,33.2,30.28,East,96,1.0,2.0,78,0.00,,,0.00,Wunderground PWS Mod,2013-02-26 16:52:00,
2013-02-26 11:58:00,39.3,33.0,30.28,ESE,102,1.0,2.0,78,0.00,,,0.00,Wunderground PWS Mod,2013-02-26 16:58:00,
2013-02-26 12:03:00,39.2,32.9,30.28,SE,137,1.0,2.0,78,0.00,,,0.00,Wunderground PWS Mod,2013-02-26 17:03:00,
2013-02-26 12:07:00,39.2,32.9,30.28,ESE,113,2.0,9.0,78,0.00,,,0.00,Wunderground PWS Mod,2013-02-26 17:07:00,
2013-02-26 12:08:00,39.3,33.0,30.28,SSE,150,1.0,9.0,78,0.00,,,0.00,Wunderground PWS Mod,2013-02-26 17:08:00,
2013-02-26 12:14:00,39.7,33.1,30.27,East,101,0.0,9.0,77,0.00,,,0.00,Wunderground PWS Mod,2013-02-26 17:14:00,
2013-02-26 12:20:00,39.5,32.9,30.27,WNW,282,1.0,9.0,77,0.00,,,0.00,Wunderground PWS Mod,2013-02-26 17:20:00,
2013-02-26 12:25:00,39.7,33.1,30.27,South,183,1.0,9.0,77,0.00,,,0.00,Wunderground PWS Mod,2013-02-26 17:25:00,
2013-02-26 12:31:00,39.8,32.5,30.27,SW,234,1.0,9.0,75,0.00,,,0.00,Wunderground PWS Mod,2013-02-26 17:31:00,
2013-02-26 12:36:00,39.9,32.3,30.27,SE,129,1.0,9.0,74,0.00,,,0.00,Wunderground PWS Mod,2013-02-26 17:36:00,
2013-02-26 12:41:00,39.9,32.6,30.27,SE,128,1.0,9.0,75,0.00,,,0.00,Wunderground PWS Mod,2013-02-26 17:41:00,
2013-02-26 12:46:00,39.9,32.6,30.27,SSW,206,1.0,9.0,75,0.00,,,0.00,Wunderground PWS Mod,2013-02-26 17:46:00,
2013-02-26 12:52:00,39.8,32.8,30.27,SSE,157,1.0,9.0,76,0.00,,,0.00,Wunderground PWS Mod,2013-02-26 17:52:00,
2013-02-26 12:57:00,39.7,32.8,30.27,SE,134,1.0,9.0,76,0.00,,,0.00,Wunderground PWS Mod,2013-02-26 17:57:00,
2013-02-26 13:02:00,39.6,33.0,30.27,SSE,153,1.0,9.0,77,0.00,,,0.00,Wunderground PWS Mod,2013-02-26 18:02:00,
2013-02-26 13:07:00,39.5,32.2,30.26,SE,142,1.0,9.0,75,0.00,,,0.00,Wunderground PWS Mod,2013-02-26 18:07:00,
2013-02-26 13:13:00,39.5,32.6,30.26,SSE,150,1.0,9.0,76,0.00,,,0.00,Wunderground PWS Mod,2013-02-26 18:13:00,
2013-02-26 13:18:00,39.5,33.2,30.26,SE,136,1.0,9.0,78,0.00,,,0.00,Wunderground PWS Mod,2013-02-26 18:18:00,
2013-02-26 13:23:00,39.4,33.1,30.25,NNE,20,1.0,9.0,78,0.00,,,0.00,Wunderground PWS Mod,2013-02-26 18:23:00,
2013-02-26 13:29:00,39.3,32.7,30.25,SSE,155,2.0,9.0,77,0.00,,,0.00,Wunderground PWS Mod,2013-02-26 18:29:00,
2013-02-26 13:34:00,39.2,32.9,30.25,ESE,120,2.0,9.0,78,0.00,,,0.00,Wunderground PWS Mod,2013-02-26 18:34:00,
2013-02-26 13:40:00,39.2,32.9,30.24,SE,131,2.0,9.0,78,0.00,,,0.00,Wunderground PWS Mod,2013-02-26 18:40:00,
2013-02-26 13:46:00,39.1,32.5,30.24,SE,145,1.0,9.0,77,0.00,,,0.00,Wunderground PWS Mod,2013-02-26 18:46:00,
2013-02-26 13:52:00,38.9,32.3,30.24,SE,132,3.0,9.0,77,0.00,,,0.00,Wunderground PWS Mod,2013-02-26 18:52:00,
2013-02-26 13:57:00,38.9,32.6,30.24,SE,136,3.0,9.0,78,0.00,,,0.00,Wunderground PWS Mod,2013-02-26 18:57:00,
2013-02-26 14:02:00,38.8,32.5,30.24,ESE,108,2.0,9.0,78,0.00,,,0.00,Wunderground PWS Mod,2013-02-26 19:02:00,
2013-02-26 14:07:00,38.8,32.2,30.24,SE,146,1.0,9.0,77,0.00,,,0.00,Wunderground PWS Mod,2013-02-26 19:07:00,
2013-02-26 14:13:00,38.7,32.1,30.24,SE,140,2.0,9.0,77,0.00,,,0.00,Wunderground PWS Mod,2013-02-26 19:13:00,
2013-02-26 14:18:00,38.8,32.2,30.24,SE,132,2.0,9.0,77,0.00,,,0.00,Wunderground PWS Mod,2013-02-26 19:18:00,
2013-02-26 14:24:00,38.9,32.0,30.23,ESE,115,2.0,9.0,76,0.00,,,0.00,Wunderground PWS Mod,2013-02-26 19:24:00,
2013-02-26 14:30:00,39.0,32.1,30.23,East,98,2.0,9.0,76,0.00,,,0.00,Wunderground PWS Mod,2013-02-26 19:30:00,
2013-02-26 14:35:00,39.0,31.7,30.23,SE,135,3.0,9.0,75,0.00,,,0.00,Wunderground PWS Mod,2013-02-26 19:35:00,
2013-02-26 14:40:00,39.1,31.5,30.23,ESE,107,3.0,9.0,74,0.00,,,0.00,Wunderground PWS Mod,2013-02-26 19:40:00,
2013-02-26 14:45:00,39.3,31.7,30.23,SE,138,2.0,9.0,74,0.00,,,0.00,Wunderground PWS Mod,2013-02-26 19:45:00,
2013-02-26 14:51:00,39.4,31.1,30.22,SSE,150,2.0,9.0,72,0.00,,,0.00,Wunderground PWS Mod,2013-02-26 19:51:00,
2013-02-26 14:57:00,39.6,30.6,30.23,ESE,102,3.0,9.0,70,0.00,,,0.00,Wunderground PWS Mod,2013-02-26 19:57:00,
2013-02-26 15:02:00,39.6,30.6,30.23,ESE,102,255.0,255.0,70,0.00,,,0.00,Wunderground PWS Mod,2013-02-26 20:02:00,
2013-02-26 15:07:00,39.4,30.4,30.23,ESE,113,255.0,255.0,70,0.00,,,0.00,Wunderground PWS Mod,2013-02-26 20:07:00,
2013-02-26 15:12:00,39.2,28.8,30.23,ESE,122,255.0,255.0,66,0.00,,,0.00,Wunderground PWS Mod,2013-02-26 20:12:00,
2013-02-26 15:18:00,39.0,28.6,30.23,ESE,113,3.0,9.0,66,0.00,,,0.00,Wunderground PWS Mod,2013-02-26 20:18:00,
2013-02-26 15:23:00,39.1,29.4,30.23,ESE,109,2.0,9.0,68,0.00,,,0.00,Wunderground PWS Mod,2013-02-26 20:23:00,
2013-02-26 15:28:00,39.0,29.3,30.23,SE,134,2.0,9.0,68,0.00,,,0.00,Wunderground PWS Mod,2013-02-26 20:28:00,
2013-02-26 15:34:00,38.8,28.8,30.23,SSW,211,3.0,9.0,67,0.00,,,0.00,Wunderground PWS Mod,2013-02-26 20:34:00,
2013-02-26 15:40:00,38.6,28.9,30.23,SE,137,3.0,9.0,68,0.00,,,0.00,Wunderground PWS Mod,2013-02-26 20:40:00,
2013-02-26 15:45:00,38.5,28.5,30.23,ESE,104,3.0,9.0,67,0.00,,,0.00,Wunderground PWS Mod,2013-02-26 20:45:00,
2013-02-26 15:50:00,38.4,28.4,30.23,SE,142,3.0,9.0,67,0.00,,,0.00,Wunderground PWS Mod,2013-02-26 20:50:00,
2013-02-26 15:55:00,38.3,28.7,30.23,SSE,153,3.0,9.0,68,0.00,,,0.00,Wunderground PWS Mod,2013-02-26 20:55:00,
2013-02-26 16:01:00,38.2,28.6,30.23,ESE,103,3.0,9.0,68,0.00,,,0.00,Wunderground PWS Mod,2013-02-26 21:01:00,
2013-02-26 16:06:00,38.1,28.1,30.23,South,188,2.0,10.0,67,0.00,,,0.00,Wunderground PWS Mod,2013-02-26 21:06:00,
2013-02-26 16:11:00,37.8,27.8,30.22,SE,136,3.0,10.0,67,0.00,,,0.00,Wunderground PWS Mod,2013-02-26 21:11:00,
2013-02-26 16:14:00,38.1,28.5,30.23,SE,135,3.0,10.0,68,0.00,,,0.00,Wunderground PWS Mod,2013-02-26 21:14:00,
2013-02-26 16:16:00,37.7,27.7,30.22,ESE,121,3.0,10.0,67,0.00,,,0.00,Wunderground PWS Mod,2013-02-26 21:16:00,
2013-02-26 16:22:00,37.5,27.9,30.21,SE,131,3.0,10.0,68,0.00,,,0.00,Wunderground PWS Mod,2013-02-26 21:22:00,
2013-02-26 16:27:00,37.4,27.8,30.21,East,100,2.0,10.0,68,0.00,,,0.00,Wunderground PWS Mod,2013-02-26 21:27:00,
2013-02-26 16:32:00,37.3,27.7,30.21,East,85,2.0,10.0,68,0.00,,,0.00,Wunderground PWS Mod,2013-02-26 21:32:00,
2013-02-26 16:37:00,37.1,27.9,30.21,ESE,114,3.0,10.0,69,0.00,,,0.00,Wunderground PWS Mod,2013-02-26 21:37:00,
2013-02-26 16:43:00,37.0,28.1,30.20,ESE,117,3.0,10.0,70,0.00,,,0.00,Wunderground PWS Mod,2013-02-26 21:43:00,
2013-02-26 16:48:00,36.9,28.7,30.20,ENE,77,2.0,10.0,72,0.00,,,0.00,Wunderground PWS Mod,2013-02-26 21:48:00,
2013-02-26 16:53:00,36.7,28.5,30.20,ESE,113,1.0,10.0,72,0.00,,,0.00,Wunderground PWS Mod,2013-02-26 21:53:00,
2013-02-26 16:58:00,36.6,28.8,30.20,ESE,118,2.0,10.0,73,0.00,,,0.00,Wunderground PWS Mod,2013-02-26 21:58:00,
2013-02-26 17:04:00,36.5,28.7,30.20,SE,137,2.0,10.0,73,0.00,,,0.00,Wunderground PWS Mod,2013-02-26 22:04:00,
2013-02-26 17:10:00,36.5,28.3,30.19,ESE,108,2.0,10.0,72,0.00,,,0.00,Wunderground PWS Mod,2013-02-26 22:10:00,
2013-02-26 17:15:00,36.4,28.6,30.19,SE,126,2.0,10.0,73,0.00,,,0.00,Wunderground PWS Mod,2013-02-26 22:15:00,
2013-02-26 17:20:00,36.4,28.6,30.20,SE,134,3.0,10.0,73,0.00,,,0.00,Wunderground PWS Mod,2013-02-26 22:20:00,
2013-02-26 17:25:00,36.4,28.9,30.20,SE,126,3.0,10.0,74,0.00,,,0.00,Wunderground PWS Mod,2013-02-26 22:25:00,
2013-02-26 17:31:00,36.3,28.8,30.20,ESE,103,1.0,10.0,74,0.00,,,0.00,Wunderground PWS Mod,2013-02-26 22:31:00,
2013-02-26 17:36:00,36.1,28.6,30.20,ESE,118,1.0,10.0,74,0.00,,,0.00,Wunderground PWS Mod,2013-02-26 22:36:00,
2013-02-26 17:41:00,36.0,28.8,30.19,East,89,1.0,10.0,75,0.00,,,0.00,Wunderground PWS Mod,2013-02-26 22:41:00,
2013-02-26 17:47:00,35.9,29.1,30.19,ENE,59,1.0,10.0,76,0.00,,,0.00,Wunderground PWS Mod,2013-02-26 22:47:00,
2013-02-26 17:52:00,35.8,29.0,30.19,East,80,0.0,10.0,76,0.00,,,0.00,Wunderground PWS Mod,2013-02-26 22:52:00,
2013-02-26 17:57:00,35.8,29.0,30.19,ESE,113,0.0,10.0,76,0.00,,,0.00,Wunderground PWS Mod,2013-02-26 22:57:00,
2013-02-26 18:02:00,35.9,29.1,30.19,ESE,106,1.0,10.0,76,0.00,,,0.00,Wunderground PWS Mod,2013-02-26 23:02:00,
2013-02-26 18:08:00,35.9,29.1,30.19,East,84,2.0,10.0,76,0.00,,,0.00,Wunderground PWS Mod,2013-02-26 23:08:00,
2013-02-26 18:13:00,35.7,29.2,30.18,SE,132,1.0,10.0,77,0.00,,,0.00,Wunderground PWS Mod,2013-02-26 23:13:00,
2013-02-26 18:18:00,35.6,29.1,30.18,ESE,111,0.0,10.0,77,0.00,,,0.00,Wunderground PWS Mod,2013-02-26 23:18:00,
2013-02-26 18:24:00,35.5,29.0,30.18,SSE,153,0.0,10.0,77,0.00,,,0.00,Wunderground PWS Mod,2013-02-26 23:24:00,
2013-02-26 18:30:00,35.5,29.0,30.18,NE,50,0.0,10.0,77,0.00,,,0.00,Wunderground PWS Mod,2013-02-26 23:30:00,
2013-02-26 18:35:00,35.5,29.0,30.18,SE,137,0.0,10.0,77,0.00,,,0.00,Wunderground PWS Mod,2013-02-26 23:35:00,
2013-02-26 18:40:00,35.4,28.9,30.18,East,82,0.0,10.0,77,0.00,,,0.00,Wunderground PWS Mod,2013-02-26 23:40:00,
2013-02-26 18:46:00,35.3,29.1,30.17,NE,51,1.0,10.0,78,0.00,,,0.00,Wunderground PWS Mod,2013-02-26 23:46:00,
2013-02-26 18:51:00,35.4,29.2,30.18,ESE,108,1.0,10.0,78,0.00,,,0.00,Wunderground PWS Mod,2013-02-26 23:51:00,
2013-02-26 18:56:00,35.3,29.1,30.18,ESE,107,0.0,10.0,78,0.00,,,0.00,Wunderground PWS Mod,2013-02-26 23:56:00,
2013-02-26 19:02:00,35.2,29.0,30.18,SE,136,0.0,10.0,78,0.00,,,0.00,Wunderground PWS Mod,2013-02-27 00:02:00,
2013-02-26 19:07:00,35.1,29.2,30.18,SE,138,0.0,10.0,79,0.00,,,0.00,Wunderground PWS Mod,2013-02-27 00:07:00,
2013-02-26 19:12:00,35.1,29.2,30.18,ESE,121,0.0,10.0,79,0.00,,,0.00,Wunderground PWS Mod,2013-02-27 00:12:00,
2013-02-26 19:17:00,35.1,29.2,30.17,ESE,105,0.0,10.0,79,0.00,,,0.00,Wunderground PWS Mod,2013-02-27 00:17:00,
2013-02-26 19:23:00,35.1,29.2,30.17,ESE,103,0.0,10.0,79,0.00,,,0.00,Wunderground PWS Mod,2013-02-27 00:23:00,
2013-02-26 19:29:00,35.1,29.2,30.16,East,80,1.0,10.0,79,0.00,,,0.00,Wunderground PWS Mod,2013-02-27 00:29:00,
2013-02-26 19:34:00,35.1,29.2,30.16,East,89,1.0,10.0,79,0.00,,,0.00,Wunderground PWS Mod,2013-02-27 00:34:00,
2013-02-26 19:40:00,35.1,29.6,30.16,East,79,1.0,10.0,80,0.00,,,0.00,Wunderground PWS Mod,2013-02-27 00:40:00,
2013-02-26 19:45:00,35.1,29.6,30.16,ESE,117,1.0,10.0,80,0.00,,,0.00,Wunderground PWS Mod,2013-02-27 00:45:00,
2013-02-26 19:51:00,35.1,29.6,30.16,ESE,102,1.0,10.0,80,0.00,,,0.00,Wunderground PWS Mod,2013-02-27 00:51:00,
2013-02-26 19:57:00,35.2,29.6,30.16,East,85,1.0,10.0,80,0.00,,,0.00,Wunderground PWS Mod,2013-02-27 00:57:00,
2013-02-26 20:02:00,35.1,29.6,30.15,ESE,117,1.0,10.0,80,0.00,,,0.00,Wunderground PWS Mod,2013-02-27 01:02:00,
2013-02-26 20:07:00,35.3,29.7,30.16,East,88,2.0,7.0,80,0.00,,,0.00,Wunderground PWS Mod,2013-02-27 01:07:00,
2013-02-26 20:09:00,35.1,29.6,30.15,East,90,1.0,7.0,80,0.00,,,0.07,Wunderground PWS Mod,2013-02-27 01:09:00,
2013-02-26 20:13:00,35.3,29.7,30.16,NE,55,2.0,7.0,80,0.00,,,0.00,Wunderground PWS Mod,2013-02-27 01:13:00,
2013-02-26 20:18:00,35.3,29.7,30.15,ENE,65,1.0,7.0,80,0.00,,,0.00,Wunderground PWS Mod,2013-02-27 01:18:00,
2013-02-26 20:23:00,35.3,30.1,30.15,East,101,1.0,7.0,81,0.00,,,0.00,Wunderground PWS Mod,2013-02-27 01:23:00,
2013-02-26 20:28:00,35.4,30.1,30.14,East,100,2.0,7.0,81,0.00,,,0.00,Wunderground PWS Mod,2013-02-27 01:28:00,
2013-02-26 20:34:00,35.5,30.2,30.14,NNE,13,3.0,7.0,81,0.00,,,0.00,Wunderground PWS Mod,2013-02-27 01:34:00,
2013-02-26 20:40:00,35.5,29.9,30.14,ESE,114,2.0,7.0,80,0.00,,,0.00,Wunderground PWS Mod,2013-02-27 01:40:00,
2013-02-26 20:45:00,35.5,30.2,30.14,ENE,69,1.0,7.0,81,0.00,,,0.00,Wunderground PWS Mod,2013-02-27 01:45:00,
2013-02-26 20:51:00,35.6,30.3,30.14,East,84,1.0,7.0,81,0.00,,,0.00,Wunderground PWS Mod,2013-02-27 01:51:00,
2013-02-26 20:57:00,35.6,30.0,30.15,SSE,164,2.0,7.0,80,0.00,,,0.00,Wunderground PWS Mod,2013-02-27 01:57:00,
2013-02-26 21:02:00,35.6,30.0,30.14,ESE,105,2.0,12.0,80,0.00,,,0.00,Wunderground PWS Mod,2013-02-27 02:02:00,
2013-02-26 21:07:00,35.7,30.1,30.14,East,95,3.0,7.0,80,0.00,,,0.00,Wunderground PWS Mod,2013-02-27 02:07:00,
2013-02-26 21:13:00,35.7,30.1,30.14,ESE,113,2.0,7.0,80,0.00,,,0.00,Wunderground PWS Mod,2013-02-27 02:13:00,
2013-02-26 21:19:00,35.7,30.4,30.13,NE,34,1.0,7.0,81,0.00,,,0.00,Wunderground PWS Mod,2013-02-27 02:19:00,
2013-02-26 21:25:00,35.7,30.4,30.12,ENE,73,1.0,7.0,81,0.00,,,0.00,Wunderground PWS Mod,2013-02-27 02:25:00,
2013-02-26 21:31:00,35.8,30.5,30.12,East,90,2.0,7.0,81,0.00,,,0.00,Wunderground PWS Mod,2013-02-27 02:31:00,
2013-02-26 21:36:00,35.8,30.5,30.11,ENE,57,2.0,7.0,81,0.00,,,0.00,Wunderground PWS Mod,2013-02-27 02:36:00,
2013-02-26 21:41:00,35.7,30.4,30.11,ENE,65,2.0,7.0,81,0.00,,,0.00,Wunderground PWS Mod,2013-02-27 02:41:00,
2013-02-26 21:46:00,35.5,30.8,30.10,NNE,12,3.0,7.0,83,0.00,,,0.00,Wunderground PWS Mod,2013-02-27 02:46:00,
2013-02-26 21:52:00,35.4,31.0,30.10,East,100,3.0,7.0,84,0.00,,,0.00,Wunderground PWS Mod,2013-02-27 02:52:00,
2013-02-26 21:58:00,35.2,31.1,30.09,East,86,3.0,7.0,85,0.00,,,0.00,Wunderground PWS Mod,2013-02-27 02:58:00,
2013-02-26 22:03:00,35.1,31.3,30.09,ENE,69,2.0,7.0,86,0.00,,,0.00,Wunderground PWS Mod,2013-02-27 03:03:00,
2013-02-26 22:08:00,35.1,31.3,30.09,ESE,123,3.0,7.0,86,0.00,,,0.01,Wunderground PWS Mod,2013-02-27 03:08:00,
2013-02-26 22:14:00,35.0,31.5,30.09,NE,39,2.0,7.0,87,0.00,,,0.01,Wunderground PWS Mod,2013-02-27 03:14:00,
2013-02-26 22:20:00,34.8,31.3,30.08,ENE,69,2.0,7.0,87,0.00,,,0.01,Wunderground PWS Mod,2013-02-27 03:20:00,
2013-02-26 22:25:00,34.8,31.3,30.07,ESE,113,3.0,7.0,87,0.00,,,0.01,Wunderground PWS Mod,2013-02-27 03:25:00,
2013-02-26 22:30:00,34.8,31.6,30.07,NNE,16,3.0,7.0,88,0.00,,,0.01,Wunderground PWS Mod,2013-02-27 03:30:00,
2013-02-26 22:36:00,34.8,31.6,30.07,ENE,75,3.0,7.0,88,0.00,,,0.01,Wunderground PWS Mod,2013-02-27 03:36:00,
2013-02-26 22:41:00,34.9,31.7,30.07,ESE,118,3.0,7.0,88,0.00,,,0.01,Wunderground PWS Mod,2013-02-27 03:41:00,
2013-02-26 22:47:00,34.9,31.4,30.06,ENE,69,4.0,7.0,87,0.00,,,0.01,Wunderground PWS Mod,2013-02-27 03:47:00,
2013-02-26 22:52:00,35.0,31.5,30.06,East,83,4.0,7.0,87,0.00,,,0.01,Wunderground PWS Mod,2013-02-27 03:52:00,
2013-02-26 22:57:00,35.1,31.6,30.05,ENE,63,4.0,7.0,87,0.00,,,0.01,Wunderground PWS Mod,2013-02-27 03:57:00,
2013-02-26 23:02:00,35.0,31.5,30.05,East,89,3.0,7.0,87,0.00,,,0.01,Wunderground PWS Mod,2013-02-27 04:02:00,
2013-02-26 23:08:00,34.8,31.6,30.05,ENE,69,3.0,7.0,88,0.00,,,0.02,Wunderground PWS Mod,2013-02-27 04:08:00,
2013-02-26 23:13:00,34.8,31.9,30.04,ENE,73,4.0,7.0,89,0.00,,,0.02,Wunderground PWS Mod,2013-02-27 04:13:00,
2013-02-26 23:18:00,34.7,32.1,30.05,East,83,3.0,7.0,90,0.00,,,0.02,Wunderground PWS Mod,2013-02-27 04:18:00,
2013-02-26 23:23:00,34.8,32.2,30.05,ENE,75,3.0,7.0,90,0.00,,,0.02,Wunderground PWS Mod,2013-02-27 04:23:00,
2013-02-26 23:29:00,34.8,32.2,30.05,ENE,75,4.0,7.0,90,0.00,,,0.03,Wunderground PWS Mod,2013-02-27 04:29:00,
2013-02-26 23:34:00,34.7,32.3,30.04,SE,138,4.0,7.0,91,0.00,,,0.03,Wunderground PWS Mod,2013-02-27 04:34:00,
2013-02-26 23:40:00,34.6,32.2,30.04,East,86,4.0,7.0,91,0.06,,,0.04,Wunderground PWS Mod,2013-02-27 04:40:00,
2013-02-26 23:45:00,34.6,32.5,30.03,ENE,77,4.0,7.0,92,0.07,,,0.05,Wunderground PWS Mod,2013-02-27 04:45:00,
2013-02-26 23:50:00,34.6,32.5,30.03,East,88,4.0,7.0,92,0.07,,,0.05,Wunderground PWS Mod,2013-02-27 04:50:00,
2013-02-26 23:55:00,34.6,32.5,30.02,ENE,58,4.0,8.0,92,0.10,,,0.06,Wunderground PWS Mod,2013-02-27 04:55:00,